| time (UTC) | temp C | wind direction | speed KPH | gust KPH | rain 1hr cm | rain 24hr cm | rain mn cm | humidity % | barometer mb |
| 20260507070434 | 7 | 330 | 0.0 | 0.0 | 0.00 | 0.00 | 0.00 | 72 | 1017.0 |
| 20260507065931 | 7 | 330 | 0.0 | 0.0 | 0.00 | 0.00 | 0.00 | 72 | 1017.1 |
| 20260507065427 | 7 | 330 | 0.0 | 0.0 | 0.00 | 0.00 | 0.00 | 73 | 1017.0 |
| 20260507064919 | 7 | 330 | 0.0 | 0.0 | 0.00 | 0.00 | 0.00 | 73 | 1017.0 |
| 20260507064417 | 7 | 330 | 0.0 | 0.0 | 0.00 | 0.00 | 0.00 | 72 | 1017.0 |
| 20260507063915 | 7 | 330 | 0.0 | 0.0 | 0.00 | 0.00 | 0.00 | 75 | 1017.1 |
| 20260507063412 | 7 | 330 | 0.0 | 0.0 | 0.00 | 0.00 | 0.00 | 74 | 1016.9 |
| 20260507062909 | 7 | 330 | 0.0 | 0.0 | 0.00 | 0.00 | 0.00 | 74 | 1017.1 |
| 20260507062405 | 8 | 330 | 0.0 | 0.0 | 0.00 | 0.00 | 0.00 | 73 | 1017.1 |
| 20260507061902 | 8 | 330 | 0.0 | 0.0 | 0.00 | 0.00 | 0.00 | 72 | 1016.8 |
| 20260507061400 | 8 | 330 | 0.0 | 0.0 | 0.00 | 0.00 | 0.00 | 72 | 1016.8 |
| 20260507060853 | 8 | 330 | 0.0 | 0.0 | 0.00 | 0.00 | 0.00 | 71 | 1017.0 |
| 20260507060349 | 8 | 330 | 0.0 | 0.0 | 0.00 | 0.00 | 0.00 | 71 | 1017.0 |
| 20260507055846 | 8 | 330 | 0.0 | 0.0 | 0.00 | 0.00 | 0.00 | 74 | 1016.9 |
| 20260507055341 | 8 | 330 | 0.0 | 0.0 | 0.00 | 0.00 | 0.00 | 73 | 1017.0 |
| 20260507054839 | 8 | 330 | 0.0 | 0.0 | 0.00 | 0.00 | 0.00 | 72 | 1017.1 |
| 20260507054334 | 8 | 330 | 0.0 | 0.0 | 0.00 | 0.00 | 0.00 | 72 | 1016.8 |
| 20260507053832 | 8 | 330 | 0.0 | 0.0 | 0.00 | 0.00 | 0.00 | 71 | 1016.7 |
| 20260507053329 | 8 | 330 | 0.0 | 0.0 | 0.00 | 0.00 | 0.00 | 71 | 1016.8 |
| 20260507052828 | 8 | 330 | 0.0 | 0.0 | 0.00 | 0.00 | 0.00 | 73 | 1016.8 |
| 20260507052324 | 8 | 330 | 0.0 | 0.0 | 0.00 | 0.00 | 0.00 | 73 | 1016.8 |
| 20260507051822 | 8 | 330 | 0.0 | 0.0 | 0.00 | 0.00 | 0.00 | 72 | 1016.8 |
| 20260507051320 | 8 | 330 | 0.0 | 0.0 | 0.00 | 0.00 | 0.00 | 73 | 1016.9 |
| 20260507050816 | 8 | 330 | 0.0 | 0.0 | 0.00 | 0.00 | 0.00 | 74 | 1016.8 |
| 20260507050312 | 8 | 330 | 0.0 | 0.0 | 0.00 | 0.00 | 0.00 | 76 | 1016.6 |
| 20260507045810 | 8 | 330 | 0.0 | 0.0 | 0.00 | 0.00 | 0.00 | 75 | 1016.7 |
| 20260507045307 | 8 | 330 | 0.0 | 0.0 | 0.00 | 0.00 | 0.00 | 74 | 1016.3 |
| 20260507044803 | 9 | 330 | 0.0 | 0.0 | 0.00 | 0.00 | 0.00 | 76 | 1016.5 |
| 20260507044300 | 9 | 330 | 0.0 | 0.0 | 0.00 | 0.00 | 0.00 | 75 | 1016.4 |
| 20260507043756 | 9 | 330 | 0.0 | 0.0 | 0.00 | 0.00 | 0.00 | 72 | 1016.4 |
| 20260507043252 | 9 | 330 | 0.0 | 0.0 | 0.00 | 0.00 | 0.00 | 75 | 1016.5 |
| 20260507042749 | 9 | 330 | 0.0 | 0.0 | 0.00 | 0.00 | 0.00 | 72 | 1016.4 |
| 20260507042244 | 9 | 330 | 0.0 | 0.0 | 0.00 | 0.00 | 0.00 | 70 | 1016.3 |
| 20260507041742 | 9 | 330 | 0.0 | 0.0 | 0.00 | 0.00 | 0.00 | 69 | 1016.3 |
| 20260507041238 | 9 | 330 | 0.0 | 0.0 | 0.00 | 0.00 | 0.00 | 68 | 1016.3 |
| 20260507040735 | 9 | 330 | 0.0 | 0.0 | 0.00 | 0.00 | 0.00 | 68 | 1016.3 |
| 20260507040231 | 10 | 330 | 0.0 | 0.0 | 0.00 | 0.00 | 0.00 | 68 | 1016.3 |
| 20260507035727 | 10 | 330 | 0.0 | 0.0 | 0.00 | 0.00 | 0.00 | 67 | 1016.3 |
| 20260507035223 | 10 | 330 | 0.0 | 0.0 | 0.00 | 0.00 | 0.00 | 68 | 1016.5 |
| 20260507034721 | 10 | 330 | 0.0 | 0.0 | 0.00 | 0.00 | 0.00 | 68 | 1016.4 |
| 20260507034217 | 10 | 330 | 0.0 | 0.0 | 0.00 | 0.00 | 0.00 | 68 | 1016.4 |
| 20260507033716 | 10 | 330 | 0.0 | 0.0 | 0.00 | 0.00 | 0.00 | 68 | 1016.4 |
| 20260507033213 | 10 | 330 | 0.0 | 0.0 | 0.00 | 0.00 | 0.00 | 68 | 1016.4 |
| 20260507032710 | 10 | 330 | 0.0 | 0.0 | 0.00 | 0.00 | 0.00 | 69 | 1016.4 |
| 20260507032206 | 10 | 330 | 0.0 | 0.0 | 0.00 | 0.00 | 0.00 | 68 | 1016.3 |
| 20260507031703 | 10 | 330 | 0.0 | 0.0 | 0.00 | 0.00 | 0.00 | 68 | 1016.2 |
| 20260507031200 | 10 | 330 | 0.0 | 0.0 | 0.00 | 0.00 | 0.00 | 67 | 1016.0 |
| 20260507030656 | 10 | 330 | 0.0 | 0.0 | 0.00 | 0.00 | 0.00 | 69 | 1015.9 |
| 20260507030154 | 10 | 330 | 0.0 | 1.6 | 0.00 | 0.00 | 0.00 | 68 | 1015.9 |
| 20260507025651 | 10 | 330 | 0.0 | 0.0 | 0.00 | 0.00 | 0.00 | 70 | 1016.1 |
| 20260507025148 | 10 | 330 | 0.0 | 0.0 | 0.00 | 0.00 | 0.00 | 68 | 1015.9 |
| 20260507024646 | 10 | 330 | 0.0 | 0.0 | 0.00 | 0.00 | 0.00 | 66 | 1016.0 |
| 20260507024143 | 11 | 330 | 0.0 | 0.0 | 0.00 | 0.00 | 0.00 | 66 | 1015.8 |
| 20260507023638 | 11 | 330 | 0.0 | 0.0 | 0.00 | 0.00 | 0.00 | 66 | 1015.6 |
| 20260507023136 | 11 | 330 | 0.0 | 0.0 | 0.00 | 0.00 | 0.00 | 66 | 1015.7 |
| 20260507022633 | 11 | 330 | 0.0 | 0.0 | 0.00 | 0.00 | 0.00 | 64 | 1015.7 |
| 20260507022128 | 11 | 330 | 0.0 | 1.6 | 0.00 | 0.00 | 0.00 | 64 | 1015.7 |
| 20260507021625 | 11 | 330 | 0.0 | 0.0 | 0.00 | 0.00 | 0.00 | 65 | 1015.6 |
| 20260507021120 | 11 | 331 | 0.0 | 0.0 | 0.00 | 0.00 | 0.00 | 65 | 1015.7 |
| 20260507020619 | 11 | 330 | 0.0 | 0.0 | 0.00 | 0.00 | 0.00 | 64 | 1015.6 |
| 20260507020115 | 11 | 330 | 0.0 | 0.0 | 0.00 | 0.00 | 0.00 | 64 | 1015.7 |
| 20260507015614 | 11 | 330 | 0.0 | 0.0 | 0.00 | 0.00 | 0.00 | 64 | 1015.7 |
| 20260507015111 | 11 | 331 | 0.0 | 0.0 | 0.00 | 0.00 | 0.00 | 65 | 1015.3 |
| 20260507014607 | 11 | 331 | 0.0 | 1.6 | 0.00 | 0.00 | 0.00 | 64 | 1015.6 |
| 20260507014103 | 11 | 331 | 0.0 | 1.6 | 0.00 | 0.00 | 0.00 | 64 | 1015.4 |
| 20260507013600 | 12 | 331 | 0.0 | 0.0 | 0.00 | 0.00 | 0.00 | 64 | 1015.1 |
| 20260507013057 | 12 | 331 | 0.0 | 0.0 | 0.00 | 0.00 | 0.00 | 63 | 1015.0 |
| 20260507012554 | 12 | 331 | 0.0 | 0.0 | 0.00 | 0.00 | 0.00 | 63 | 1015.2 |
| 20260507012049 | 12 | 331 | 0.0 | 0.0 | 0.00 | 0.00 | 0.00 | 64 | 1015.2 |
| 20260507011547 | 12 | 331 | 0.0 | 0.0 | 0.00 | 0.00 | 0.00 | 63 | 1015.2 |
| 20260507011038 | 12 | 331 | 0.0 | 0.0 | 0.00 | 0.00 | 0.00 | 63 | 1015.1 |
| 20260507010532 | 12 | 331 | 0.0 | 0.0 | 0.00 | 0.00 | 0.00 | 62 | 1015.2 |
| 20260507010029 | 13 | 331 | 0.0 | 0.0 | 0.00 | 0.00 | 0.00 | 62 | 1015.1 |
| 20260507005527 | 13 | 331 | 0.0 | 0.0 | 0.00 | 0.00 | 0.00 | 60 | 1015.0 |
| 20260507005023 | 13 | 331 | 0.0 | 0.0 | 0.00 | 0.00 | 0.00 | 60 | 1014.8 |
| 20260507004520 | 13 | 331 | 0.0 | 0.0 | 0.00 | 0.00 | 0.00 | 61 | 1014.9 |
| 20260507004017 | 13 | 331 | 0.0 | 0.0 | 0.00 | 0.00 | 0.00 | 60 | 1015.0 |
| 20260507003512 | 13 | 331 | 0.0 | 0.0 | 0.00 | 0.00 | 0.00 | 59 | 1014.8 |
| 20260507003008 | 13 | 331 | 0.0 | 1.6 | 0.00 | 0.00 | 0.00 | 58 | 1014.9 |
| 20260507002504 | 13 | 331 | 0.0 | 0.0 | 0.00 | 0.00 | 0.00 | 59 | 1014.7 |
| 20260507002001 | 13 | 331 | 0.0 | 0.0 | 0.00 | 0.00 | 0.00 | 58 | 1014.8 |
| 20260507001457 | 13 | 331 | 0.0 | 0.0 | 0.00 | 0.00 | 0.00 | 58 | 1014.6 |
| 20260507000955 | 13 | 331 | 1.6 | 3.2 | 0.00 | 0.00 | 0.00 | 59 | 1014.7 |
| 20260507000450 | 13 | 331 | 0.0 | 1.6 | 0.00 | 0.00 | 0.00 | 58 | 1014.9 |
| 20260506235946 | 14 | 331 | 1.6 | 3.2 | 0.00 | 0.00 | 0.00 | 58 | 1014.7 |
| 20260506235444 | 14 | 331 | 0.0 | 0.0 | 0.00 | 0.00 | 0.00 | 57 | 1014.8 |
| 20260506234940 | 14 | 314 | 1.6 | 3.2 | 0.00 | 0.00 | 0.00 | 57 | 1014.7 |
| 20260506234437 | 15 | 255 | 1.6 | 1.6 | 0.00 | 0.00 | 0.00 | 59 | 1014.8 |
| 20260506233935 | 15 | 284 | 0.0 | 0.0 | 0.00 | 0.00 | 0.00 | 57 | 1014.4 |
| 20260506233431 | 15 | 325 | 0.0 | 0.0 | 0.00 | 0.00 | 0.00 | 57 | 1014.4 |
| 20260506232928 | 15 | 333 | 1.6 | 1.6 | 0.00 | 0.00 | 0.00 | 55 | 1014.4 |
| 20260506232424 | 15 | 332 | 1.6 | 1.6 | 0.00 | 0.00 | 0.00 | 56 | 1014.4 |
| 20260506231920 | 15 | 16 | 1.6 | 1.6 | 0.00 | 0.00 | 0.00 | 54 | 1014.2 |
| 20260506231418 | 15 | 324 | 0.0 | 0.0 | 0.00 | 0.00 | 0.00 | 55 | 1014.2 |
| 20260506230914 | 15 | 313 | 0.0 | 1.6 | 0.00 | 0.00 | 0.00 | 55 | 1013.9 |
| 20260506230411 | 15 | 351 | 3.2 | 3.2 | 0.00 | 0.00 | 0.00 | 53 | 1013.9 |
| 20260506225907 | 15 | 314 | 3.2 | 3.2 | 0.00 | 0.00 | 0.00 | 60 | 1013.8 |
| 20260506225405 | 15 | 23 | 3.2 | 3.2 | 0.00 | 0.00 | 0.00 | 57 | 1013.6 |
| 20260506224901 | 15 | 339 | 4.8 | 4.8 | 0.00 | 0.00 | 0.00 | 58 | 1013.5 |
| 20260506224359 | 15 | 330 | 0.0 | 0.0 | 0.00 | 0.00 | 0.00 | 60 | 1013.6 |
| 20260506223855 | 15 | 339 | 0.0 | 0.0 | 0.00 | 0.00 | 0.00 | 59 | 1013.3 |
| 20260506223350 | 15 | 323 | 1.6 | 1.6 | 0.00 | 0.00 | 0.00 | 60 | 1013.4 |
| 20260506222848 | 15 | 339 | 0.0 | 0.0 | 0.00 | 0.00 | 0.00 | 60 | 1013.5 |
| 20260506222344 | 15 | 339 | 0.0 | 0.0 | 0.00 | 0.00 | 0.00 | 62 | 1013.2 |
| 20260506221842 | 14 | 339 | 0.0 | 0.0 | 0.00 | 0.00 | 0.00 | 63 | 1013.5 |
| 20260506221339 | 14 | 339 | 1.6 | 3.2 | 0.00 | 0.00 | 0.00 | 61 | 1013.5 |
| 20260506220836 | 14 | 339 | 0.0 | 1.6 | 0.00 | 0.00 | 0.00 | 62 | 1013.8 |
| 20260506220332 | 14 | 339 | 0.0 | 0.0 | 0.00 | 0.00 | 0.00 | 62 | 1013.8 |
| 20260506215829 | 14 | 339 | 0.0 | 0.0 | 0.00 | 0.00 | 0.00 | 61 | 1013.9 |
| 20260506215324 | 14 | 339 | 0.0 | 0.0 | 0.00 | 0.00 | 0.00 | 63 | 1013.8 |
| 20260506214820 | 14 | 339 | 0.0 | 0.0 | 0.00 | 0.00 | 0.00 | 63 | 1013.8 |
| 20260506214317 | 13 | 346 | 0.0 | 1.6 | 0.00 | 0.00 | 0.00 | 63 | 1013.8 |
| 20260506213816 | 14 | 346 | 3.2 | 4.8 | 0.00 | 0.00 | 0.00 | 63 | 1014.0 |
| 20260506213313 | 14 | 356 | 0.0 | 1.6 | 0.00 | 0.00 | 0.00 | 66 | 1013.9 |
| 20260506212810 | 13 | 1 | 0.0 | 0.0 | 0.00 | 0.00 | 0.00 | 65 | 1013.8 |
| 20260506212307 | 14 | 1 | 4.8 | 4.8 | 0.00 | 0.00 | 0.00 | 63 | 1013.9 |
| 20260506211801 | 15 | 352 | 6.4 | 8.0 | 0.00 | 0.00 | 0.00 | 63 | 1014.0 |
| 20260506211257 | 15 | 307 | 4.8 | 4.8 | 0.00 | 0.00 | 0.00 | 61 | 1014.2 |
| 20260506210754 | 14 | 358 | 0.0 | 0.0 | 0.00 | 0.00 | 0.00 | 64 | 1014.1 |
| 20260506210251 | 15 | 4 | 1.6 | 1.6 | 0.00 | 0.00 | 0.00 | 62 | 1014.1 |
| 20260506205748 | 14 | 339 | 1.6 | 1.6 | 0.00 | 0.00 | 0.00 | 64 | 1014.2 |
| 20260506205244 | 15 | 352 | 0.0 | 0.0 | 0.00 | 0.00 | 0.00 | 64 | 1014.2 |
| 20260506204741 | 14 | 327 | 1.6 | 3.2 | 0.00 | 0.00 | 0.00 | 68 | 1014.5 |
| 20260506204238 | 13 | 327 | 0.0 | 0.0 | 0.00 | 0.00 | 0.00 | 68 | 1014.3 |
| 20260506203736 | 13 | 316 | 0.0 | 0.0 | 0.00 | 0.00 | 0.00 | 68 | 1014.7 |
| 20260506203233 | 13 | 316 | 0.0 | 0.0 | 0.00 | 0.00 | 0.00 | 68 | 1014.7 |
| 20260506202731 | 13 | 316 | 0.0 | 1.6 | 0.00 | 0.00 | 0.00 | 66 | 1014.9 |
| 20260506202227 | 13 | 330 | 0.0 | 0.0 | 0.00 | 0.00 | 0.00 | 66 | 1014.9 |
| 20260506201724 | 13 | 331 | 1.6 | 1.6 | 0.00 | 0.00 | 0.00 | 66 | 1014.8 |
| 20260506201220 | 14 | 326 | 1.6 | 1.6 | 0.00 | 0.00 | 0.00 | 66 | 1015.1 |
| 20260506200717 | 15 | 326 | 0.0 | 0.0 | 0.00 | 0.00 | 0.00 | 63 | 1015.0 |
| 20260506200209 | 15 | 325 | 0.0 | 1.6 | 0.00 | 0.00 | 0.00 | 63 | 1015.2 |
| 20260506195705 | 15 | 326 | 0.0 | 0.0 | 0.00 | 0.00 | 0.00 | 61 | 1015.1 |
| 20260506195201 | 15 | 326 | 0.0 | 1.6 | 0.00 | 0.00 | 0.00 | 61 | 1015.1 |
| 20260506194659 | 15 | 2 | 1.6 | 1.6 | 0.00 | 0.00 | 0.00 | 64 | 1015.1 |
| 20260506194154 | 15 | 89 | 1.6 | 1.6 | 0.00 | 0.00 | 0.00 | 70 | 1015.0 |
| 20260506193652 | 13 | 9 | 0.0 | 0.0 | 0.00 | 0.00 | 0.00 | 70 | 1015.1 |
| 20260506193149 | 13 | 190 | 0.0 | 0.0 | 0.00 | 0.00 | 0.00 | 71 | 1015.4 |
| 20260506192646 | 13 | 317 | 0.0 | 1.6 | 0.00 | 0.00 | 0.00 | 67 | 1015.2 |
| 20260506192142 | 13 | 306 | 0.0 | 1.6 | 0.00 | 0.00 | 0.00 | 70 | 1015.3 |
| 20260506191639 | 13 | 306 | 0.0 | 0.0 | 0.00 | 0.00 | 0.00 | 69 | 1015.4 |
| 20260506191135 | 13 | 307 | 0.0 | 1.6 | 0.00 | 0.00 | 0.00 | 67 | 1015.2 |
| 20260506190633 | 13 | 307 | 0.0 | 1.6 | 0.00 | 0.00 | 0.00 | 71 | 1015.2 |
| 20260506190129 | 13 | 329 | 0.0 | 1.6 | 0.00 | 0.00 | 0.00 | 70 | 1015.1 |
| 20260506185627 | 13 | 333 | 0.0 | 1.6 | 0.00 | 0.00 | 0.00 | 66 | 1015.3 |
| 20260506185123 | 13 | 317 | 1.6 | 1.6 | 0.00 | 0.00 | 0.00 | 67 | 1015.4 |
| 20260506184620 | 14 | 288 | 3.2 | 4.8 | 0.00 | 0.00 | 0.00 | 67 | 1015.6 |
| 20260506184117 | 14 | 310 | 0.0 | 0.0 | 0.00 | 0.00 | 0.00 | 68 | 1015.4 |
| 20260506183614 | 13 | 309 | 0.0 | 0.0 | 0.00 | 0.00 | 0.00 | 67 | 1015.7 |
| 20260506183110 | 13 | 296 | 1.6 | 3.2 | 0.00 | 0.00 | 0.00 | 67 | 1016.0 |
| 20260506182608 | 13 | 296 | 0.0 | 0.0 | 0.00 | 0.00 | 0.00 | 69 | 1016.0 |
| 20260506182104 | 13 | 296 | 0.0 | 0.0 | 0.00 | 0.00 | 0.00 | 70 | 1016.2 |
| 20260506181603 | 13 | 295 | 0.0 | 1.6 | 0.00 | 0.00 | 0.00 | 69 | 1016.2 |
| 20260506181059 | 13 | 289 | 1.6 | 3.2 | 0.00 | 0.00 | 0.00 | 69 | 1016.0 |
| 20260506180556 | 13 | 308 | 0.0 | 1.6 | 0.00 | 0.00 | 0.00 | 69 | 1016.4 |
| 20260506180052 | 13 | 308 | 0.0 | 0.0 | 0.00 | 0.00 | 0.00 | 72 | 1016.4 |
| 20260506175549 | 12 | 315 | 0.0 | 1.6 | 0.00 | 0.00 | 0.00 | 67 | 1016.5 |
| 20260506175045 | 13 | 313 | 1.6 | 3.2 | 0.00 | 0.00 | 0.00 | 69 | 1016.6 |
| 20260506174544 | 12 | 324 | 1.6 | 1.6 | 0.00 | 0.00 | 0.00 | 68 | 1016.8 |
| 20260506174039 | 12 | 327 | 1.6 | 1.6 | 0.00 | 0.00 | 0.00 | 72 | 1016.5 |
| 20260506173538 | 12 | 327 | 3.2 | 4.8 | 0.00 | 0.00 | 0.00 | 73 | 1016.6 |
| 20260506173034 | 12 | 0 | 0.0 | 0.0 | 0.00 | 0.00 | 0.00 | 72 | 1016.9 |
| 20260506172531 | 11 | 359 | 0.0 | 1.6 | 0.00 | 0.00 | 0.00 | 72 | 1016.8 |
| 20260506172022 | 12 | 4 | 0.0 | 1.6 | 0.00 | 0.00 | 0.00 | 72 | 1016.6 |
| 20260506171519 | 12 | 4 | 0.0 | 1.6 | 0.00 | 0.00 | 0.00 | 77 | 1016.7 |
| 20260506171017 | 12 | 5 | 4.8 | 8.0 | 0.00 | 0.00 | 0.00 | 72 | 1016.6 |
| 20260506170514 | 11 | 352 | 0.0 | 0.0 | 0.00 | 0.00 | 0.00 | 73 | 1016.3 |
| 20260506170011 | 11 | 352 | 1.6 | 3.2 | 0.00 | 0.00 | 0.00 | 73 | 1016.5 |
| 20260506165510 | 11 | 56 | 3.2 | 4.8 | 0.00 | 0.00 | 0.00 | 73 | 1016.4 |
| 20260506165000 | 11 | 38 | 1.6 | 3.2 | 0.00 | 0.00 | 0.00 | 74 | 1016.5 |
| 20260506164457 | 11 | 339 | 1.6 | 3.2 | 0.00 | 0.00 | 0.00 | 73 | 1016.2 |
| 20260506163954 | 11 | 107 | 0.0 | 0.0 | 0.00 | 0.00 | 0.00 | 73 | 1016.1 |
| 20260506163449 | 11 | 344 | 0.0 | 0.0 | 0.00 | 0.00 | 0.00 | 76 | 1016.0 |
| 20260506162944 | 11 | 260 | 0.0 | 1.6 | 0.00 | 0.00 | 0.00 | 77 | 1016.1 |
| 20260506162442 | 11 | 202 | 0.0 | 1.6 | 0.00 | 0.00 | 0.00 | 78 | 1016.0 |
| 20260506161939 | 11 | 19 | 3.2 | 8.0 | 0.00 | 0.00 | 0.00 | 78 | 1016.0 |
| 20260506161437 | 11 | 351 | 0.0 | 0.0 | 0.00 | 0.00 | 0.00 | 78 | 1015.7 |
| 20260506160929 | 11 | 314 | 3.2 | 3.2 | 0.00 | 0.00 | 0.00 | 77 | 1015.9 |
| 20260506160426 | 10 | 15 | 1.6 | 3.2 | 0.00 | 0.00 | 0.00 | 77 | 1015.7 |
| 20260506155923 | 10 | 344 | 1.6 | 1.6 | 0.00 | 0.00 | 0.00 | 78 | 1015.7 |
| 20260506155420 | 10 | 357 | 1.6 | 3.2 | 0.00 | 0.00 | 0.00 | 79 | 1015.8 |
| 20260506153542 | 8 | 288 | 0.0 | 1.6 | 0.00 | 0.00 | 0.00 | 82 | 1015.8 |
| 20260506153040 | 9 | 5 | 3.2 | 4.8 | 0.00 | 0.00 | 0.00 | 83 | 1016.0 |
| 20260506152537 | 9 | 43 | 1.6 | 3.2 | 0.00 | 0.00 | 0.00 | 84 | 1016.0 |
| 20260506152035 | 9 | 326 | 0.0 | 0.0 | 0.00 | 0.00 | 0.00 | 84 | 1015.9 |
| 20260506151532 | 9 | 7 | 1.6 | 3.2 | 0.00 | 0.00 | 0.00 | 85 | 1015.9 |
| 20260506151024 | 9 | 334 | 0.0 | 0.0 | 0.00 | 0.00 | 0.00 | 87 | 1015.9 |
| 20260506150520 | 8 | 326 | 1.6 | 1.6 | 0.00 | 0.00 | 0.00 | 85 | 1015.7 |
| 20260506150017 | 8 | 5 | 0.0 | 0.0 | 0.00 | 0.00 | 0.00 | 85 | 1016.0 |
| 20260506145514 | 8 | 1 | 1.6 | 3.2 | 0.00 | 0.00 | 0.00 | 85 | 1016.0 |
| 20260506145011 | 8 | 0 | 0.0 | 1.6 | 0.00 | 0.00 | 0.00 | 85 | 1015.6 |
| 20260506144508 | 9 | 93 | 1.6 | 3.2 | 0.00 | 0.00 | 0.00 | 87 | 1015.7 |
| 20260506144005 | 8 | 94 | 3.2 | 3.2 | 0.00 | 0.00 | 0.00 | 87 | 1015.6 |
| 20260506143503 | 8 | 348 | 1.6 | 3.2 | 0.00 | 0.00 | 0.00 | 87 | 1015.3 |
| 20260506143001 | 8 | 351 | 3.2 | 3.2 | 0.00 | 0.00 | 0.00 | 86 | 1015.3 |
| 20260506142458 | 8 | 329 | 1.6 | 3.2 | 0.00 | 0.00 | 0.00 | 88 | 1015.3 |
| 20260506141956 | 8 | 329 | 1.6 | 1.6 | 0.00 | 0.00 | 0.00 | 88 | 1015.4 |
| 20260506141454 | 8 | 258 | 4.8 | 4.8 | 0.00 | 0.00 | 0.00 | 89 | 1015.4 |
| 20260506140952 | 8 | 357 | 1.6 | 3.2 | 0.00 | 0.00 | 0.00 | 90 | 1015.6 |
| 20260506140449 | 8 | 358 | 4.8 | 8.0 | 0.00 | 0.00 | 0.00 | 91 | 1015.6 |
| 20260506135945 | 8 | 333 | 3.2 | 4.8 | 0.00 | 0.00 | 0.00 | 92 | 1015.3 |
| 20260506135443 | 8 | 334 | 0.0 | 0.0 | 0.00 | 0.00 | 0.00 | 93 | 1015.4 |
| 20260506134938 | 8 | 336 | 1.6 | 1.6 | 0.00 | 0.00 | 0.00 | 93 | 1015.3 |
| 20260506134435 | 8 | 339 | 0.0 | 0.0 | 0.00 | 0.00 | 0.00 | 94 | 1015.4 |
| 20260506133932 | 7 | 339 | 0.0 | 0.0 | 0.00 | 0.00 | 0.00 | 93 | 1015.2 |
| 20260506133429 | 7 | 339 | 0.0 | 0.0 | 0.00 | 0.00 | 0.00 | 94 | 1015.1 |
| 20260506132926 | 7 | 342 | 0.0 | 1.6 | 0.00 | 0.00 | 0.00 | 94 | 1015.1 |
| 20260506132423 | 7 | 342 | 0.0 | 0.0 | 0.00 | 0.00 | 0.00 | 94 | 1015.3 |
| 20260506131920 | 7 | 23 | 0.0 | 0.0 | 0.00 | 0.00 | 0.00 | 94 | 1015.1 |
| 20260506131417 | 7 | 8 | 4.8 | 9.7 | 0.00 | 0.00 | 0.00 | 95 | 1015.0 |
| 20260506130914 | 7 | 0 | 0.0 | 1.6 | 0.00 | 0.00 | 0.00 | 96 | 1014.9 |
| 20260506130410 | 7 | 288 | 0.0 | 3.2 | 0.00 | 0.00 | 0.00 | 96 | 1015.3 |
| 20260506125908 | 7 | 322 | 1.6 | 1.6 | 0.00 | 0.00 | 0.00 | 96 | 1015.0 |
| 20260506125406 | 6 | 26 | 0.0 | 0.0 | 0.00 | 0.00 | 0.00 | 97 | 1015.2 |
| 20260506124904 | 7 | 271 | 0.0 | 1.6 | 0.00 | 0.00 | 0.00 | 97 | 1015.0 |
| 20260506124401 | 7 | 305 | 0.0 | 0.0 | 0.00 | 0.00 | 0.00 | 97 | 1015.0 |
| 20260506123859 | 7 | 305 | 0.0 | 0.0 | 0.00 | 0.00 | 0.00 | 97 | 1015.1 |
| 20260506123357 | 7 | 306 | 0.0 | 0.0 | 0.00 | 0.00 | 0.00 | 97 | 1015.0 |
| 20260506122854 | 7 | 293 | 0.0 | 0.0 | 0.00 | 0.00 | 0.00 | 97 | 1014.9 |
| 20260506122350 | 7 | 280 | 0.0 | 0.0 | 0.00 | 0.00 | 0.00 | 97 | 1014.9 |
| 20260506121849 | 6 | 280 | 0.0 | 0.0 | 0.00 | 0.00 | 0.00 | 97 | 1014.6 |
| 20260506121346 | 7 | 316 | 1.6 | 3.2 | 0.00 | 0.00 | 0.00 | 97 | 1014.7 |
| 20260506120843 | 6 | 305 | 0.0 | 0.0 | 0.00 | 0.00 | 0.00 | 97 | 1014.8 |
| 20260506120340 | 6 | 316 | 0.0 | 0.0 | 0.00 | 0.00 | 0.00 | 97 | 1014.6 |
| 20260506115837 | 6 | 316 | 0.0 | 0.0 | 0.00 | 0.00 | 0.00 | 97 | 1014.6 |
| 20260506115336 | 6 | 317 | 0.0 | 0.0 | 0.00 | 0.00 | 0.00 | 97 | 1014.8 |
| 20260506114834 | 6 | 317 | 1.6 | 1.6 | 0.00 | 0.00 | 0.00 | 97 | 1014.6 |
| 20260506114331 | 7 | 317 | 0.0 | 0.0 | 0.00 | 0.00 | 0.00 | 97 | 1014.5 |
| 20260506113830 | 6 | 317 | 0.0 | 0.0 | 0.00 | 0.00 | 0.00 | 96 | 1014.5 |
| 20260506113327 | 6 | 316 | 1.6 | 3.2 | 0.00 | 0.00 | 0.00 | 96 | 1014.4 |
| 20260506112823 | 6 | 317 | 1.6 | 1.6 | 0.00 | 0.00 | 0.00 | 96 | 1014.3 |
| 20260506112320 | 6 | 299 | 0.0 | 0.0 | 0.00 | 0.00 | 0.00 | 96 | 1014.0 |
| 20260506111818 | 6 | 299 | 0.0 | 1.6 | 0.00 | 0.00 | 0.00 | 96 | 1014.0 |
| 20260506111316 | 6 | 299 | 0.0 | 0.0 | 0.00 | 0.00 | 0.00 | 96 | 1013.9 |
| 20260506110813 | 6 | 300 | 0.0 | 0.0 | 0.00 | 0.00 | 0.00 | 96 | 1014.0 |
| 20260506110310 | 7 | 304 | 0.0 | 0.0 | 0.00 | 0.00 | 0.00 | 96 | 1013.8 |
| 20260506105806 | 6 | 315 | 0.0 | 1.6 | 0.00 | 0.00 | 0.00 | 96 | 1013.6 |
| 20260506105305 | 7 | 306 | 0.0 | 0.0 | 0.00 | 0.00 | 0.00 | 95 | 1013.5 |
| 20260506104801 | 6 | 306 | 0.0 | 0.0 | 0.00 | 0.00 | 0.00 | 95 | 1013.2 |
| 20260506104258 | 6 | 314 | 0.0 | 0.0 | 0.00 | 0.00 | 0.00 | 95 | 1012.9 |
| 20260506103756 | 6 | 311 | 0.0 | 0.0 | 0.00 | 0.00 | 0.00 | 95 | 1013.1 |
| 20260506103253 | 7 | 311 | 0.0 | 0.0 | 0.00 | 0.00 | 0.00 | 94 | 1012.6 |
| 20260506102750 | 6 | 311 | 3.2 | 3.2 | 0.00 | 0.00 | 0.00 | 94 | 1012.7 |
| 20260506102248 | 6 | 2 | 3.2 | 3.2 | 0.00 | 0.00 | 0.00 | 94 | 1012.5 |
| 20260506101745 | 6 | 353 | 0.0 | 0.0 | 0.00 | 0.00 | 0.00 | 95 | 1012.4 |
| 20260506101241 | 6 | 349 | 1.6 | 1.6 | 0.00 | 0.00 | 0.00 | 95 | 1012.3 |
| 20260506100740 | 6 | 358 | 1.6 | 3.2 | 0.00 | 0.00 | 0.00 | 95 | 1012.2 |
| 20260506100237 | 6 | 1 | 1.6 | 3.2 | 0.00 | 0.00 | 0.00 | 96 | 1012.1 |
| 20260506095736 | 6 | 2 | 1.6 | 1.6 | 0.00 | 0.00 | 0.00 | 97 | 1011.9 |
| 20260506095232 | 6 | 6 | 1.6 | 3.2 | 0.00 | 0.00 | 0.00 | 97 | 1011.5 |
| 20260506094729 | 6 | 19 | 0.0 | 0.0 | 0.00 | 0.00 | 0.00 | 97 | 1011.6 |
| 20260506094227 | 6 | 98 | 1.6 | 3.2 | 0.00 | 0.00 | 0.00 | 97 | 1011.4 |
| 20260506093726 | 6 | 355 | 1.6 | 1.6 | 0.00 | 0.00 | 0.00 | 97 | 1011.8 |
| 20260506093222 | 6 | 350 | 1.6 | 3.2 | 0.00 | 0.00 | 0.00 | 97 | 1011.7 |
| 20260506092720 | 6 | 321 | 0.0 | 1.6 | 0.00 | 0.00 | 0.00 | 98 | 1011.9 |
| 20260506092218 | 6 | 328 | 1.6 | 3.2 | 0.00 | 0.00 | 0.00 | 98 | 1011.8 |
| 20260506091715 | 6 | 8 | 0.0 | 0.0 | 0.00 | 0.00 | 0.00 | 98 | 1012.0 |
| 20260506091212 | 6 | 9 | 0.0 | 0.0 | 0.00 | 0.00 | 0.00 | 98 | 1012.1 |
| 20260506090710 | 6 | 11 | 1.6 | 1.6 | 0.00 | 0.00 | 0.00 | 98 | 1012.1 |
| 20260506090206 | 6 | 11 | 0.0 | 1.6 | 0.00 | 0.00 | 0.00 | 98 | 1011.9 |
| 20260506085704 | 6 | 11 | 0.0 | 0.0 | 0.00 | 0.00 | 0.00 | 98 | 1011.7 |
| 20260506085159 | 6 | 11 | 0.0 | 0.0 | 0.00 | 0.00 | 0.00 | 98 | 1011.9 |
| 20260506084656 | 6 | 11 | 0.0 | 0.0 | 0.00 | 0.00 | 0.00 | 98 | 1012.0 |
| 20260506084153 | 6 | 11 | 0.0 | 0.0 | 0.00 | 0.00 | 0.00 | 98 | 1011.7 |
| 20260506083650 | 6 | 11 | 1.6 | 1.6 | 0.00 | 0.00 | 0.00 | 98 | 1011.7 |
| 20260506083148 | 6 | 357 | 3.2 | 3.2 | 0.00 | 0.00 | 0.00 | 98 | 1011.3 |
| 20260506082644 | 6 | 12 | 0.0 | 0.0 | 0.00 | 0.00 | 0.00 | 98 | 1011.2 |
| 20260506082139 | 6 | 359 | 0.0 | 1.6 | 0.00 | 0.00 | 0.00 | 98 | 1011.5 |
| 20260506081638 | 6 | 3 | 0.0 | 1.6 | 0.00 | 0.00 | 0.00 | 98 | 1011.3 |
| 20260506081135 | 6 | 9 | 0.0 | 1.6 | 0.00 | 0.00 | 0.00 | 98 | 1011.1 |
| 20260506080632 | 6 | 9 | 3.2 | 4.8 | 0.00 | 0.00 | 0.00 | 98 | 1010.8 |
| 20260506080129 | 6 | 13 | 1.6 | 3.2 | 0.00 | 0.00 | 0.00 | 98 | 1010.6 |
| 20260506073113 | 6 | 338 | 0.0 | 0.0 | 0.00 | 0.00 | 0.00 | 98 | 1011.1 |
| 20260506072609 | 6 | 1 | 0.0 | 1.6 | 0.00 | 0.00 | 0.00 | 98 | 1010.6 |
| 20260506072108 | 6 | 274 | 1.6 | 3.2 | 0.00 | 0.00 | 0.00 | 98 | 1010.6 |
| 20260506071605 | 6 | 314 | 1.6 | 1.6 | 0.00 | 0.00 | 0.00 | 98 | 1010.7 |
| 20260506071102 | 6 | 313 | 1.6 | 1.6 | 0.00 | 0.00 | 0.00 | 98 | 1011.1 |